Flag for Germany Weather past 2 weeks in Waren (Müritz), Mecklenburg-Western Pomerania, Germany

Now
81 °F

Passing clouds.


Feels Like: 81 °F
Forecast: 58 / 81 °F
Wind: 22 mph from Northeast

Location: Laage

Current Time: Jul 22, 2014 at 5:11:39 PM

Latest Report: Jul 22, 2014 at 4:20 PM


Visibility: N/A

Pressure: 30.09 "Hg

Humidity: 42%

Dew point: 55 °F

Location of Waren (Müritz)Location

Historic Weather in Waren (Müritz) — Graph

°F

Waren (Müritz) temperature yesterday

Maximum temperature yesterday: 79 °F (at 1:20 PM)
Minimum temperature yesterday: 64 °F (at 1:20 AM)
Average temperature yesterday: 71 °F

Past Weeks' High & Low Weather Summary

 TemperatureHumidityPressure
High84 °F (Jul 19, 2:20 PM)100% (Jul 8, 4:47 AM)30.18 "Hg (Jul 8, 4:47 AM)
Low55 °F (Jul 12, 10:20 PM)35% (Jul 19, 3:20 PM)29.65 "Hg (Jul 9, 3:20 PM)
Average67 °F75%29.95 "Hg
* Reported Jul 7 3:20 PM — Jul 22 3:20 PM, Waren (Müritz), Weather by CustomWeather, © 2014

Note: Actual official high and low records may vary slightly from our data, if they occured in-between our weather recording intervals... More about our weather records

Advertising

Waren (Müritz) weather history for previous 24 hours

 ConditionsComfort  
Time TempWeatherWind HumidityBarometerVisibility
3:20 PM
Jul 22
81 °FScattered clouds.20 mph45%30.09 "HgN/A
2:20 PM81 °FScattered clouds.20 mph45%30.12 "HgN/A
1:20 PM81 °FScattered clouds.13 mph51%30.09 "HgN/A
12:20 PM81 °FScattered clouds.16 mph48%30.09 "HgN/A
11:20 AM79 °FScattered clouds.13 mph58%30.09 "HgN/A
10:20 AM75 °FPassing clouds.13 mph69%30.09 "HgN/A
9:20 AM72 °FPassing clouds.12 mph78%30.09 "HgN/A
8:20 AM70 °FPassing clouds.10 mph83%30.07 "HgN/A
7:20 AM66 °FPassing clouds.12 mph88%30.07 "HgN/A
6:20 AM64 °FPassing clouds.10 mph94%30.07 "HgN/A
5:20 AM63 °FPassing clouds.10 mph94%30.04 "HgN/A
4:20 AM63 °FPassing clouds.7 mph94%30.04 "HgN/A
3:20 AM61 °FPassing clouds.7 mph100%30.04 "HgN/A
2:20 AM63 °FPassing clouds.7 mph94%30.04 "HgN/A
1:20 AM63 °FPassing clouds.9 mph94%30.04 "HgN/A
12:20 AM64 °FMild.9 mph88%30.04 "HgN/A
11:20 PM
Jul 21
64 °FPassing clouds.8 mph88%30.01 "HgN/A
10:20 PM66 °FPassing clouds.12 mph83%30.01 "HgN/A
9:20 PM68 °FPassing clouds.12 mph78%30.01 "HgN/A
8:20 PM72 °FPassing clouds.18 mph65%29.98 "HgN/A
7:20 PM73 °FPassing clouds.21 mph57%29.98 "HgN/A
6:20 PM75 °FPassing clouds.21 mph50%29.98 "HgN/A
5:20 PM77 °FPassing clouds.21 mph47%29.98 "HgN/A
Weather by CustomWeather, © 2014

See weather overviewHow to use our weather pages